This is the latest recevied weather packets stored in our database for station/object K1AWR. If no packets are shown the sender has not sent any weather packets the latest 10 day(s).
| Time | Temp. | Humidity | Pressure | Rain* | Wind** | Luminosity | Snow |
|---|---|---|---|---|---|---|---|
| 1778097645 | 15.56° C | 91% | 1007.4 hPa | 0 mm | - | 39 W/m² | - |
| 1778097342 | 15.56° C | 91% | 1007.4 hPa | 0 mm | - | 51 W/m² | - |
| 1778097038 | 15.56° C | 91% | 1007.4 hPa | 0 mm | - | 59 W/m² | - |
| 1778096736 | 15° C | 90% | 1007.6 hPa | 0 mm | - | 59 W/m² | - |
| 1778096432 | 15° C | 91% | 1007.4 hPa | 0 mm | - | 73 W/m² | - |
| 1778096129 | 15° C | 91% | 1007.5 hPa | 0 mm | - | 83 W/m² | - |
| 1778095827 | 15° C | 91% | 1007.5 hPa | 0 mm | - | 36 W/m² | - |
| 1778095523 | 15° C | 91% | 1007.7 hPa | 0 mm | - | 42 W/m² | - |
| 1778095219 | 15° C | 90% | 1007.6 hPa | 0 mm | - | 52 W/m² | - |
| 1778094916 | 15° C | 90% | 1007.7 hPa | 0 mm | - | 48 W/m² | - |
| 1778094612 | 15° C | 90% | 1007.7 hPa | 0 mm | - | 65 W/m² | - |
| 1778094310 | 15° C | 90% | 1007.8 hPa | 0 mm | - | 44 W/m² | - |
| 1778094006 | 15° C | 90% | 1007.7 hPa | 3.05 mm | - | 64 W/m² | - |
| 1778093704 | 15.56° C | 90% | 1007.9 hPa | 3.05 mm | - | 68 W/m² | - |
| 1778093400 | 15.56° C | 89% | 1007.9 hPa | 0 mm | - | 137 W/m² | - |
| 1778093098 | 15.56° C | 89% | 1008.2 hPa | 0 mm | - | 137 W/m² | - |
| 1778092794 | 15.56° C | 89% | 1007.7 hPa | 1.27 mm | - | 137 W/m² | - |
| 1778092490 | 15.56° C | 89% | 1008 hPa | 1.27 mm | - | 98 W/m² | - |
| 1778092187 | 15.56° C | 89% | 1007.9 hPa | 3.05 mm | - | 94 W/m² | - |
| 1778091884 | 15.56° C | 89% | 1008.1 hPa | 1.78 mm | - | 70 W/m² | - |
| 1778091581 | 15.56° C | 89% | 1008 hPa | 0 mm | - | 50 W/m² | - |
| 1778091279 | 15.56° C | 89% | 1008.1 hPa | 0 mm | - | 64 W/m² | - |
| 1778090976 | 15.56° C | 88% | 1007.8 hPa | 1.78 mm | - | 63 W/m² | - |
| 1778090672 | 15.56° C | 89% | 1007.8 hPa | 1.78 mm | - | 77 W/m² | - |
| 1778090369 | 15.56° C | 89% | 1008 hPa | 0 mm | - | 81 W/m² | - |
* Rain latest hour (hover to see other rain measurements)
** Current wind speed in m/s (hover to see current wind gust speed)